Location: Launay
(47.2429°N, 1.5727°E)
Time: 20:45:11
(UTC+00:00)

Cosmos 405 Rocket - Pass Details

Date: 19 May 2025
Orbit: 414 x 448 km, 81.2° (Epoch: 12 June)

Event Time Altitude Azimuth Distance (km) Brightness Sun altitude
Rises 21:36:30 0° 3° (N) 2,458 7.1 -16.4°
Reaches altitude 10° 21:39:08 10° 25° (NNE) 1,574 5.6 -16.6°
Maximum altitude 21:41:28 17° 68° (ENE) 1,201 4.4 -16.8°
Enters shadow 21:42:04 16° 81° (E) 1,227 4.4 -16.9°
